Weather History for KIXD - August, 2013

Change the Weather History Date:

Friday, August 30, 2013

  Actual Average Record
Temperature  
Mean Temperature 86 °F -  
Max Temperature 100 °F 85 °F 100 °F (2013)
Min Temperature 72 °F 63 °F 59 °F (2004)
Cooling Degree Days 21    
Growing Degree Days 36 (Base 50)    
Moisture  
Dew Point 68 °F    
Average Humidity 62    
Maximum Humidity 91    
Minimum Humidity 29    
Precipitation  
Precipitation 0.00 in - - ()
Sea Level Pressure  
Sea Level Pressure 29.89 in    
Wind  
Wind Speed 7 mph (SSW)    
Max Wind Speed 15 mph    
Max Gust Speed 22 mph    
Visibility 10 miles    
Events      
Averages and records for this station are not official NWS values.
T = Trace of Precipitation, MM = Missing Value Source: NWS Daily Summary

Daily Weather History Graph

Daily Weather History Graph

Search for Another Location

Airport or City:

Trip Planner

Search our weather history database for the weather conditions in past years. The results will help you decide how hot, cold, wet, or windy it might be!

Date:

Astronomy

Aug. 30, 2013 Rise Set
Actual Time 6:47 AM CDT 7:52 PM CDT
Civil Twilight 6:19 AM CDT 8:19 PM CDT
Nautical Twilight 5:46 AM CDT 8:52 PM CDT
Astronomical Twilight 5:12 AM CDT 9:26 PM CDT
Moon 1:28 AM CDT (8/30) 4:07 PM CDT (8/30)
Length of Visible Light 14h 00m
Length of Day
13h 05m
Waning Crescent, 29% of the Moon is Illuminated
Aug 30
Waning Crescent
Sep 5
New
Sep 12
First Quarter
Sep 19
Full
Sep 26
Last Quarter

Hourly Weather History & Observations

Time (CDT) Temp. Heat Index Dew Point Humidity Pressure Visibility Wind Dir Wind Speed Gust Speed Precip Events Conditions
12:53 AM 75.9 °F - 71.1 °F 85% 29.94 in 10.0 mi South 5.8 mph - N/A   Clear
1:53 AM 75.9 °F - 70.0 °F 82% 29.94 in 10.0 mi South 6.9 mph - N/A   Clear
2:53 AM 73.9 °F - 69.1 °F 85% 29.94 in 10.0 mi South 3.5 mph - N/A   Clear
3:53 AM 73.0 °F - 69.1 °F 87% 29.93 in 10.0 mi South 4.6 mph - N/A   Clear
4:53 AM 72.0 °F - 69.1 °F 91% 29.93 in 10.0 mi South 4.6 mph - N/A   Clear
5:53 AM 72.0 °F - 68.0 °F 87% 29.94 in 10.0 mi South 4.6 mph - N/A   Clear
6:53 AM 72.0 °F - 69.1 °F 91% 29.95 in 10.0 mi South 3.5 mph - N/A   Mostly Cloudy
7:53 AM 75.0 °F - 70.0 °F 84% 29.95 in 10.0 mi South 5.8 mph - N/A   Clear
8:53 AM 82.0 °F 85.5 °F 69.1 °F 65% 29.96 in 10.0 mi SSW 13.8 mph - N/A   Mostly Cloudy
9:53 AM 86.0 °F 90.1 °F 69.1 °F 57% 29.96 in 10.0 mi SSW 11.5 mph - N/A   Clear
10:53 AM 90.0 °F 94.5 °F 69.1 °F 50% 29.94 in 10.0 mi SSW 15.0 mph - N/A   Clear
11:53 AM 93.9 °F 99.1 °F 69.1 °F 44% 29.92 in 10.0 mi SW 11.5 mph - N/A   Clear
12:53 PM 95.0 °F 99.0 °F 66.9 °F 40% 29.90 in 10.0 mi South 9.2 mph - N/A   Clear
1:53 PM 98.1 °F 101.2 °F 64.9 °F 34% 29.88 in 10.0 mi SW 9.2 mph 18.4 mph N/A   Clear
2:53 PM 99.0 °F 101.7 °F 64.0 °F 32% 29.87 in 10.0 mi SSW 9.2 mph 17.3 mph N/A   Clear
3:53 PM 100.0 °F 101.8 °F 62.1 °F 29% 29.85 in 10.0 mi SSW 9.2 mph 21.9 mph N/A   Clear
4:53 PM 99.0 °F 101.7 °F 64.0 °F 32% 29.84 in 10.0 mi SSW 10.4 mph 19.6 mph N/A   Clear
5:53 PM 97.0 °F 99.3 °F 64.0 °F 34% 29.83 in 10.0 mi SSW 12.7 mph - N/A   Clear
6:53 PM 95.0 °F 97.4 °F 64.9 °F 37% 29.83 in 10.0 mi SSW 9.2 mph - N/A   Clear
7:53 PM 87.1 °F 90.6 °F 68.0 °F 53% 29.83 in 10.0 mi South 5.8 mph - N/A   Clear
8:53 PM 82.0 °F 85.5 °F 69.1 °F 65% 29.82 in 10.0 mi South 6.9 mph - N/A   Clear
9:53 PM 80.1 °F 83.2 °F 70.0 °F 71% 29.83 in 10.0 mi South 4.6 mph - N/A   Clear
10:53 PM 80.1 °F 83.6 °F 71.1 °F 74% 29.83 in 10.0 mi South 6.9 mph - N/A   Clear
11:53 PM 80.1 °F 83.2 °F 70.0 °F 71% 29.83 in 10.0 mi South 6.9 mph - N/A   Clear